Deep River, CT

9:51 PM EDT on September 27, 2016 (GMT -0400)
Chester

Weather History for KSNC - October, 2012

Change the Weather History Date:

Sunday, October 7, 2012

  Actual Average (KHVN) Record (KHVN)
Temperature  
Mean Temperature 48 °F -  
Max Temperature 53 °F 63 °F 88 °F (1990)
Min Temperature 42 °F 47 °F 35 °F (1984)
Degree Days  
Heating Degree Days 18    
Moisture  
Dew Point 43 °F    
Average Humidity 82    
Maximum Humidity 100    
Minimum Humidity 54    
Precipitation  
Precipitation 0.25 in - - ()
Sea Level Pressure  
Sea Level Pressure 30.06 in    
Wind  
Wind Speed 2 mph (NW)    
Max Wind Speed 8 mph    
Max Gust Speed -    
Visibility 10 miles    
Events Rain    
Averages and records for this station are not official NWS values.
T = Trace of Precipitation, MM = Missing Value Source: NWS Daily Summary

Daily Weather History Graph

Daily Weather History Graph

Search for Another Location

Airport or City:

Trip Planner

Search our weather history database for the weather conditions in past years. The results will help you decide how hot, cold, wet, or windy it might be!

Date:

Astronomy

Oct. 07, 2012 Rise Set
Actual Time 6:53 AM EDT 6:21 PM EDT
Civil Twilight 6:25 AM EDT 6:48 PM EDT
Nautical Twilight 5:53 AM EDT 7:20 PM EDT
Astronomical Twilight 5:21 AM EDT 7:52 PM EDT
Moon 11:27 PM EDT (10/7) 1:31 PM EDT (10/7)
Length of Visible Light 12h 22m
Length of Day
11h 27m
Waning Gibbous, 56% of the Moon is Illuminated
Oct 7
Waning Gibbous
Oct 8
Last Quarter
Oct 15
New
Oct 21
First Quarter
Oct 29
Full

Hourly Weather History & Observations

Time (EDT) Temp. Windchill Dew Point Humidity Pressure Visibility Wind Dir Wind Speed Gust Speed Precip Events Conditions
12:15 AM 48.2 °F - 46.4 °F 93% 29.99 in 10.0 mi WSW 3.5 mph - N/A   Clear
12:35 AM 46.4 °F - 46.4 °F 100% 29.99 in 10.0 mi Calm Calm - N/A   Clear
12:55 AM 46.4 °F - 46.4 °F 100% 30.00 in 10.0 mi Calm Calm - N/A   Clear
1:15 AM 46.4 °F - 46.4 °F 100% 30.00 in 10.0 mi Calm Calm - N/A   Clear
1:35 AM 46.4 °F 45.2 °F 44.6 °F 93% 30.00 in 10.0 mi WNW 3.5 mph - N/A   Clear
1:55 AM 46.4 °F 45.2 °F 44.6 °F 93% 30.01 in 10.0 mi WNW 3.5 mph - N/A   Clear
2:15 AM 46.4 °F - 44.6 °F 93% 30.01 in 10.0 mi Calm Calm - N/A   Clear
2:35 AM 44.6 °F - 42.8 °F 93% 30.01 in 10.0 mi Calm Calm - N/A   Clear
2:55 AM 44.6 °F - 42.8 °F 93% 30.01 in 10.0 mi Calm Calm - N/A   Clear
3:15 AM 44.6 °F - 42.8 °F 93% 30.02 in 10.0 mi Calm Calm - N/A   Clear
3:35 AM 44.6 °F 43.1 °F 41.0 °F 87% 30.02 in 10.0 mi WNW 3.5 mph - N/A   Clear
3:55 AM 46.4 °F 44.3 °F 39.2 °F 76% 30.02 in 10.0 mi NW 4.6 mph - N/A   Clear
4:15 AM 46.4 °F 44.3 °F 39.2 °F 76% 30.02 in 10.0 mi NNW 4.6 mph - N/A   Clear
4:35 AM 46.4 °F 45.2 °F 39.2 °F 76% 30.03 in 10.0 mi NNW 3.5 mph - N/A   Clear
4:55 AM 44.6 °F - 39.2 °F 81% 30.04 in 10.0 mi Calm Calm - N/A   Clear
5:35 AM 44.6 °F - 39.2 °F 81% 30.05 in 10.0 mi Calm Calm - N/A   Clear
5:55 AM 44.6 °F 43.1 °F 39.2 °F 81% 30.06 in 10.0 mi NW 3.5 mph - N/A   Clear
6:15 AM 42.8 °F - 39.2 °F 87% 30.07 in 10.0 mi Calm Calm - N/A   Clear
6:35 AM 42.8 °F - 39.2 °F 87% 30.08 in 10.0 mi Calm Calm - N/A   Clear
6:55 AM 44.6 °F 43.1 °F 39.2 °F 81% 30.08 in 10.0 mi NW 3.5 mph - N/A   Clear
7:15 AM 46.4 °F - 39.2 °F 76% 30.09 in 10.0 mi Calm Calm - N/A   Clear
7:35 AM 46.4 °F 45.2 °F 39.2 °F 76% 30.10 in 10.0 mi NW 3.5 mph - N/A   Clear
7:55 AM 48.2 °F - 39.2 °F 71% 30.08 in 10.0 mi North 4.6 mph - N/A   Clear
8:15 AM 51.8 °F - 39.2 °F 62% 30.08 in 10.0 mi North 5.8 mph - N/A   Clear
8:35 AM 51.8 °F - 37.4 °F 58% 30.09 in 10.0 mi NNW 4.6 mph - N/A   Clear
8:55 AM 53.6 °F - 39.2 °F 58% 30.10 in 10.0 mi NNW 4.6 mph - N/A   Clear
9:15 AM 51.8 °F - 39.2 °F 62% 30.08 in 10.0 mi NNW 4.6 mph - N/A   Clear
9:35 AM 53.6 °F - 37.4 °F 54% 30.09 in 10.0 mi NE 3.5 mph - N/A   Clear
9:55 AM 53.6 °F - 37.4 °F 54% 30.09 in 10.0 mi NE 3.5 mph - N/A   Clear
10:15 AM 53.6 °F - 37.4 °F 54% 30.09 in 10.0 mi NNE 3.5 mph - N/A   Partly Cloudy
10:35 AM 53.6 °F - 39.2 °F 58% 30.08 in 10.0 mi NNE 3.5 mph - N/A   Clear
10:55 AM 53.6 °F - 39.2 °F 58% 30.09 in 10.0 mi NNW 3.5 mph - N/A   Partly Cloudy
11:15 AM 53.6 °F - 37.4 °F 54% 30.09 in 10.0 mi NNW 3.5 mph - N/A   Scattered Clouds
11:35 AM 53.6 °F - 39.2 °F 58% 30.10 in 10.0 mi NW 3.5 mph - N/A   Mostly Cloudy
11:55 AM 53.6 °F - 39.2 °F 58% 30.09 in 10.0 mi Calm Calm - N/A Rain Light Rain
12:15 PM 53.6 °F - 42.8 °F 67% 30.08 in 9.0 mi Calm Calm - N/A   Light Drizzle
12:35 PM 53.6 °F - 42.8 °F 67% 30.08 in 8.0 mi Calm Calm - 0.01 in Rain Light Rain
12:55 PM 51.8 °F - 46.4 °F 82% 30.07 in 8.0 mi NW 3.5 mph - 0.02 in Rain Light Rain
1:15 PM 51.8 °F - 48.2 °F 88% 30.08 in 9.0 mi Calm Calm - N/A Rain Light Rain
1:35 PM 51.8 °F - 46.4 °F 82% 30.08 in 7.0 mi Calm Calm - 0.02 in Rain Light Rain
1:55 PM 51.8 °F - 46.4 °F 82% 30.07 in 5.0 mi Calm Calm - 0.04 in Rain Light Rain
2:35 PM 50.0 °F - 48.2 °F 94% 30.07 in 9.0 mi Calm Calm - 0.02 in   Light Drizzle
2:55 PM 50.0 °F - 48.2 °F 94% 30.06 in 9.0 mi South 3.5 mph - 0.03 in   Clear
3:15 PM 51.8 °F - 48.2 °F 88% 30.05 in 10.0 mi Calm Calm - N/A   Partly Cloudy
3:35 PM 51.8 °F - 44.6 °F 76% 30.05 in 10.0 mi Calm Calm - N/A   Partly Cloudy
3:55 PM 51.8 °F - 44.6 °F 76% 30.04 in 10.0 mi Calm Calm - N/A   Partly Cloudy
4:15 PM 51.8 °F - 44.6 °F 76% 30.03 in 10.0 mi Calm Calm - N/A   Partly Cloudy
4:35 PM 51.8 °F - 44.6 °F 76% 30.03 in 10.0 mi Calm Calm - N/A   Partly Cloudy
4:55 PM 51.8 °F - 46.4 °F 82% 30.03 in 10.0 mi Calm Calm - N/A   Partly Cloudy
5:15 PM 51.8 °F - 46.4 °F 82% 30.03 in 10.0 mi Calm Calm - N/A   Scattered Clouds
5:35 PM 50.0 °F - 46.4 °F 87% 30.03 in 10.0 mi Calm Calm - N/A   Mostly Cloudy
5:55 PM 50.0 °F - 48.2 °F 94% 30.02 in 10.0 mi Calm Calm - N/A   Mostly Cloudy
6:35 PM 50.0 °F - 48.2 °F 94% 30.02 in 10.0 mi Calm Calm - N/A   Scattered Clouds
6:55 PM 50.0 °F - 48.2 °F 94% 30.02 in 10.0 mi Calm Calm - N/A   Mostly Cloudy
7:15 PM 50.0 °F - 48.2 °F 94% 30.02 in 10.0 mi Calm Calm - N/A   Mostly Cloudy
7:35 PM 50.0 °F - 48.2 °F 94% 30.04 in 10.0 mi Calm Calm - N/A   Overcast
7:55 PM 48.2 °F - 46.4 °F 93% 30.05 in 10.0 mi West 3.5 mph - N/A   Overcast
8:15 PM 48.2 °F - 46.4 °F 93% 30.06 in 10.0 mi Calm Calm - N/A   Overcast
8:35 PM 48.2 °F - 46.4 °F 93% 30.06 in 10.0 mi WNW 3.5 mph - N/A   Overcast
8:55 PM 48.2 °F - 44.6 °F 87% 30.07 in 9.0 mi WNW 3.5 mph - N/A Rain Rain
9:35 PM 46.4 °F 45.2 °F 44.6 °F 93% 30.07 in 5.0 mi WNW 3.5 mph - 0.06 in   Light Drizzle
9:55 PM 46.4 °F 44.3 °F 46.4 °F 100% 30.09 in 10.0 mi WNW 4.6 mph - 0.07 in   Light Drizzle
10:15 PM 46.4 °F 42.4 °F 44.6 °F 93% 30.10 in 6.0 mi NW 8.1 mph - N/A Rain Light Rain
10:35 PM 46.4 °F 43.5 °F 44.6 °F 93% 30.08 in 4.0 mi North 5.8 mph - 0.07 in Rain Light Rain
10:55 PM 46.4 °F 44.3 °F 44.6 °F 93% 30.08 in 10.0 mi NW 4.6 mph - 0.08 in   Scattered Clouds
11:15 PM 46.4 °F 45.2 °F 44.6 °F 93% 30.09 in 10.0 mi NW 3.5 mph - N/A   Partly Cloudy
11:35 PM 46.4 °F 44.3 °F 44.6 °F 93% 30.10 in 10.0 mi NW 4.6 mph - N/A   Light Drizzle
11:55 PM 46.4 °F 44.3 °F 44.6 °F 93% 30.10 in 8.0 mi NW 4.6 mph - 0.01 in Rain Light Rain